Tracking 19792 objects as of 15-Jul-2019
HD Live streaming from Space Station
objects crossing your sky now

COSMOS 1300

Track COSMOS 1300 now!
10-day predictions
COSMOS 1300 is classified as:


NORAD ID: 12785
Int'l Code: 1981-082A
Perigee: 518.8 km
Apogee: 522.4 km
Inclination: 82.5 °
Period: 94.9 minutes
Semi major axis: 6891 km
RCS: 5.912 m2 (large)
Launch date: August 24, 1981
Source: Commonwealth of Independent States (former USSR) (CIS)
Launch site: PLESETSK MISSILE AND SPACE COMPLEX (PKMTR)
aabbcc
Your satellite tracking list
Your tracking list is empty




NASA's NSSDC Master Catalog

Two Line Element Set (TLE):
1 12785U 81082A   19195.70308753 +.00000130 +00000-0 +48954-5 0  9999
2 12785 082.5025 043.9357 0002631 108.4436 297.4565 15.17467809066475
Source of the keplerian elements: AFSPC